Flag for U.S.A. Weather past 2 weeks in San Diego, California, U.S.A.

Now
52 °F

Passing clouds.


Feels Like: 52 °F
Forecast: 49 / 62 °F
Wind: No wind

Location: San Diego - North Island

Current Time: Dec 28, 2014 at 10:49:34 PM

Latest Report: Dec 28, 2014 at 9:52 PM


Visibility: 10 mi

Pressure: 30.19 "Hg

Humidity: 66%

Dew point: 41 °F

Location of San DiegoLocation

Historic Weather in San Diego — Graph

°F

San Diego temperature yesterday

Maximum temperature yesterday: 60 °F (at 11:52 AM)
Minimum temperature yesterday: 44 °F (at 4:52 AM)
Average temperature yesterday: 52 °F

Past Weeks' High & Low Weather Summary

 TemperatureHumidityPressure
High75 °F (Dec 23, 3:52 PM)100% (Dec 22, 3:52 AM)30.32 "Hg (Dec 22, 3:52 AM)
Low41 °F (Dec 28, 4:52 AM)15% (Dec 27, 12:52 PM)29.80 "Hg (Dec 25, 3:52 PM)
Average58 °F69%30.07 "Hg
* Reported Dec 13 9:52 PM — Dec 28 9:52 PM, San Diego, Weather by CustomWeather, © 2014

Note: Actual official high and low records may vary slightly from our data, if they occured in-between our weather recording intervals... More about our weather records

Advertising

San Diego weather history for previous 24 hours

 ConditionsComfort  
Time TempWeatherWind HumidityBarometerVisibility
9:52 PM
Dec 28
52 °FPassing clouds.No wind66%30.19 "Hg10 mi
8:52 PM49 °FPassing clouds.5 mph71%30.21 "Hg10 mi
7:52 PM55 °FPassing clouds.5 mph64%30.20 "Hg10 mi
6:52 PM56 °FPassing clouds.5 mph62%30.20 "Hg10 mi
5:52 PM58 °FPassing clouds.5 mph56%30.19 "Hg10 mi
4:52 PM58 °FPassing clouds.5 mph56%30.17 "Hg10 mi
3:52 PM59 °FPartly sunny.8 mph49%30.17 "Hg10 mi
2:52 PM60 °FPartly sunny.7 mph44%30.17 "Hg10 mi
1:52 PM60 °FScattered clouds.10 mph44%30.18 "Hg10 mi
12:52 PM61 °FScattered clouds.8 mph38%30.20 "Hg10 mi
11:52 AM57 °FScattered clouds.No wind27%30.23 "Hg10 mi
10:52 AM54 °FPartly sunny.No wind31%30.26 "Hg10 mi
9:52 AM52 °FPartly sunny.No wind32%30.27 "Hg10 mi
8:52 AM49 °FPartly sunny.No wind36%30.27 "Hg10 mi
7:52 AM44 °FPartly sunny.3 mph40%30.27 "Hg10 mi
6:52 AM44 °FQuite cool.7 mph38%30.25 "Hg10 mi
5:52 AM44 °FQuite cool.3 mph43%30.24 "Hg10 mi
4:52 AM41 °FQuite cool.5 mph55%30.24 "Hg10 mi
3:52 AM44 °FQuite cool.No wind41%30.26 "Hg10 mi
2:52 AM46 °FCool.No wind40%30.27 "Hg10 mi
1:52 AM44 °FQuite cool.No wind51%30.28 "Hg10 mi
12:52 AM48 °FCool.5 mph43%30.29 "Hg10 mi
11:52 PM
Dec 27
48 °FCool.5 mph50%30.29 "Hg10 mi
10:52 PM49 °FCool.5 mph50%30.30 "Hg10 mi
Weather by CustomWeather, © 2014

See weather overviewHow to use our weather pages